This demonstration page uses our WeatherBlox Daily Observations layout. Learn more.

Left ArrowRight Arrow

Hourly Observations for May 18, 2022

Temp ( °F °C ) Dew Point ( °F °C ) Humidity (%) Winds ( mph kmh ) Pressure ( in mb ) Visibility ( mi km ) Precip ( " mm )
12:53 am 00:53 Clear 75 23.9 35 1.7 23 23 NW 8 13 29.99 1016 10 16 0.00 0.00
1:53 am 01:53 Clear 74 23.3 36 2.2 25 25 N 5 7 29.99 1016 10 16 0.00 0.00
2:53 am 02:53 Clear 69 20.6 34 1.1 27 27 N 5 7 29.98 1015 10 16 0.00 0.00
3:53 am 03:53 Clear 71 21.7 35 1.7 27 27 NNW 8 13 29.98 1015 10 16 0.00 0.00
4:53 am 04:53 Clear 70 21.1 36 2.2 29 29 NNW 5 7 30.00 1016 10 16 0.00 0.00
5:53 am 05:53 Sunny 70 21.1 35 1.7 28 28 NW 8 13 30.01 1016 10 16 0.00 0.00
6:53 am 06:53 Sunny 71 21.7 34 1.1 26 26 NW 8 13 30.03 1017 10 16 0.00 0.00
7:53 am 07:53 Sunny 74 23.3 35 1.7 24 24 NNW 12 19 30.04 1017 10 16 0.00 0.00
8:53 am 08:53 Sunny 78 25.6 34 1.1 20 20 NW 10 17 30.07 1018 10 16 0.00 0.00
9:53 am 09:53 Sunny 82 27.8 32 0 16 16 NNW 8 13 30.05 1018 10 16 0.00 0.00
10:53 am 10:53 Sunny 86 30 34 1.1 15 15 NW 12 19 30.05 1018 10 16 0.00 0.00
11:53 am 11:53 Sunny 88 31.1 38 3.3 17 17 VRB 6 9 30.04 1017 10 16 0.00 0.00
12:53 pm 12:53 Sunny 91 32.8 34 1.1 13 13 NW 14 22 30.01 1016 10 16 0.00 0.00
1:53 pm 13:53 Sunny 92 33.3 37 2.8 14 14 NNW 8 13 30.00 1016 10 16 0.00 0.00
2:53 pm 14:53 Sunny 92 33.3 38 3.3 15 15 VRB 3 6 29.98 1015 10 16 0.00 0.00
3:53 pm 15:53 Sunny 93 33.9 39 3.9 15 15 E 6 9 29.96 1015 10 16 0.00 0.00
4:53 pm 16:53 Sunny 94 34.4 45 7.2 18 18 NW 12 19 29.94 1014 10 16 0.00 0.00
5:53 pm 17:53 Sunny 91 32.8 48 8.9 23 23 WNW 18 30 29.95 1014 10 16 0.00 0.00
6:53 pm 18:53 Sunny 89 31.7 49 9.4 25 25 WNW 10 17 29.94 1014 10 16 0.00 0.00
7:53 pm 19:53 Sunny 86 30 49 9.4 28 28 WNW 12 19 29.95 1014 10 16 0.00 0.00
8:53 pm 20:53 Clear 83 28.3 47 8.3 28 28 NW 12 19 29.96 1015 10 16 0.00 0.00
9:53 pm 21:53 Clear 82 27.8 45 7.2 27 27 NW 8 13 29.98 1015 10 16 0.00 0.00
10:53 pm 22:53 Clear 80 26.7 44 6.7 28 28 WNW 8 13 29.98 1015 10 16 0.00 0.00
11:53 pm 23:53 Clear 79 26.1 41 5 26 26 NW 12 19 29.98 1015 10 16 0.00 0.00

Powered by AerisWeather